Hourly Weather Roundup
Issued by NWS Central Illinois

Home | Current Version | Previous Version | Text Only | Print | Product List | Glossary On
Versions: 1 2 3 4 5 6 7 8 9 10 11 12 13 14 15 16 17 18 19 20 21 22 23 24 25 26 27 28 29 30 31 32 33 34 35 36 37 38 39 40 41 42 43 44 45 46 47 48 49 50
000
NZUS43 KILX 210110
HWRILX

Area Weather Roundup
National Weather Service Lincoln IL
800 PM CDT SUN AUG 20 2017

NOTE:  "FAIR" indicates few or no clouds below 12,000 feet, with
       no sigificant weather and/or obstructions to visibility.


CITY           SKY/WX    TMP DP  RH WIND       PRES   REMARKS
Bloomington    MOCLDY    79  72  79 S6        30.02S HX  82
Champaign      PTCLDY    78  70  76 SE5       30.02S HX  80
Danville       PTCLDY    76  71  84 CALM      30.00S
Decatur        CLEAR     82  73  74 S6        30.01R HX  87
Effingham      CLOUDY    78  76  95 N5        30.03S HX  80
Flora          CLEAR     78  75  89 CALM      30.02S HX  81
Galesburg      CLOUDY    78  71  79 SE5       29.99S HX  80
Jacksonville   CLOUDY    79  72  79 CALM      29.98S HX  82
Lacon          MOCLDY    79  74  85 SE3       29.98S HX  82
Lawrenceville  CLEAR     79  68  69 SE5       30.02S HX  81
Litchfield     CLEAR     79  75  87 SE6       30.00S HX  84
$$


CITY           SKY/WX    TMP DP  RH WIND       PRES   REMARKS
Lincoln        CLEAR     83  77  82 CALM      29.99S HX  91
Macomb         CLOUDY    76  69  78 SW6       30.01R
Mattoon        CLEAR     80  75  84 S5        30.01S HX  85
Mt Carmel AP   CLEAR     75  71  88 SE5       30.02F
Olney-Noble AP CLEAR     78  75  90 CALM      30.03R HX  81
Paris AP       PTCLDY    78  73  85 SE5       30.03F HX  80
Peoria         PTCLDY    83  74  74 CALM      29.99S HX  89
Pontiac        CLOUDY    78  76  96 E7        30.02S HX  80
Rantoul        CLOUDY    81  74  78 SE3       30.02S HX  86
Robinson       CLEAR     75  71  85 CALM      30.03S
Springfield    PTCLDY    81  77  88 CALM      29.99S HX  88
Taylorville    CLEAR     79  76  88 S3        30.00S HX  84
$$

...REGIONAL REPORTS...


CITY           SKY/WX    TMP DP  RH WIND       PRES   REMARKS
Chicago O`Hare CLOUDY    81  70  69 S10       30.02R HX  84
Kankakee       CLOUDY    77  73  88 SE3       30.04S
Moline         CLOUDY    78  70  76 E7        29.97S HX  80
Mount Sterling CLEAR     78  71  79 SW5       30.00R HX  80
Mount Vernon     N/A     80  75  84 CALM      30.02S HX  85
Pittsfield     CLEAR     81  72  73 CALM      30.01R HX  86
Quincy         CLEAR     77  67  71 W3        30.00R
Rockford       CLOUDY    76  67  73 S9        30.03S
$$


CITY           SKY/WX    TMP DP  RH WIND       PRES   REMARKS
Burlington     CLOUDY    77  72  84 S8        29.98R
Cedar Rapids   CLEAR     74  69  85 NE6       29.98S
Des Moines     PTCLDY    77  65  66 CALM      29.96S
Kirksville     CLOUDY    74  67  78 SW3       30.01R
Ottumwa        CLEAR     73  68  84 SW6       29.98R
St Louis       CLOUDY    88  72  58 S8        29.99F HX  94
$$


CITY           SKY/WX    TMP DP  RH WIND       PRES   REMARKS
Terre Haute    CLEAR     78  70  76 CALM      30.03S HX  80
Evansville     CLEAR     84  69  60 CALM      30.04R HX  88
Indianapolis   PTCLDY    82  66  58 SE7       30.04F HX  84
Lafayette      MOCLDY    78  68  71 CALM      30.03R HX  80
Madison        PTCLDY    73  66  78 S3        30.01S
Milwaukee      MOCLDY    78  65  63 S5        30.01S HX  80
$$





USA.gov is the U.S. government's official web portal to all federal, state and local government web resources and services.